Find Starlink 2395

NORAD ID: 47814 Int'l Des: 2021-018 Owner: SPXS Country: US Constellation: starlink operational
LEOCIRCULAR

当前视图

正在加载3D地球...

About Starlink 2395

Starlink 2395 (NORAD 47814) is a starlink constellation satellite (v1.0) launched Mar 11, 2021 by SPXS of US. It operates in LEO, CIRCULAR orbit with a mass of 260.00 kg.

关于 Starlink 2395

正在加载描述...

即将过境

Passes for default location (London). Set your location on the main map for personalized predictions.

高度历史

Loading altitude history...

两行轨道根数

1 47814U 21018AD 26167.21628633 .00001466 00000-0 59009-4 0 9993
2 47814 53.1581 144.4647 0001201 78.8291 281.2845 15.31695443291887
Epoch: Jun 16, 2026 • Age: 10 hours

当前状态

高度 472.8 km
速度 7.63 km/s
星下点 35.86°N, 48.44°E
发射日期 Mar 11, 2021
运行时间 5.2 years
类型 internet

技术详情

分类 Payload
质量 260.00 kg
干质量 248.00 kg
总质量 260.00 kg
长度 0.20 m
直径 2.80 m
跨度 9.00 m
形状 Box + pan
制造商 SPXS
平台类型 Starlink
阶段状态 In Orbit
所有者/国家 SPXS/US

Most Searched